Location: Newark
(42.8481°N, 0.4872°E)
Time: 00:31:15
(UTC+00:00)

A-11 Canister half - Visible Passes

Search period start: 27 October 2020 00:00
Search period end: 06 November 2020 00:00
Orbit: 1515 x 1685 km, 47.2° (Epoch: 26 October)

Date Brightness Start Highest point End Pass type
(mag) Time Alt. Az. Time Alt. Az. Time Alt. Az.
27 Oct 10.7 01:50:49 19° ESE 01:50:49 19° ESE 01:52:50 10° ESE visible
27 Oct 9.5 03:49:05 36° SSW 03:49:05 36° SSW 03:55:55 10° SSE visible
27 Oct 9.5 18:55:44 10° SSW 19:04:46 38° SE 19:06:28 36° ESE visible
27 Oct 9.9 20:58:57 10° WSW 21:04:42 40° WSW 21:04:42 40° WSW visible
28 Oct 11.1 01:29:56 10° ESE 01:29:56 10° ESE 01:29:56 10° ESE visible
28 Oct 9.9 03:28:11 31° S 03:28:11 31° S 03:33:13 10° SSE visible
28 Oct 9.7 18:33:00 10° SSW 18:41:53 36° SE 18:45:15 29° E visible
28 Oct 9.4 20:36:00 10° WSW 20:43:29 56° SW 20:43:29 56° SW visible
28 Oct 11.3 22:41:42 10° W 22:41:42 10° W 22:41:42 10° W visible
29 Oct 10.3 03:07:18 23° SSE 03:07:18 23° SSE 03:10:31 10° SSE visible
29 Oct 9.8 18:10:19 10° SSW 18:19:01 34° SE 18:23:58 22° E visible
29 Oct 9.0 20:13:02 10° WSW 20:22:11 74° SSW 20:22:11 74° SSW visible
29 Oct 11.0 22:18:41 10° W 22:20:24 17° W 22:20:24 17° W visible
30 Oct 10.7 02:46:24 15° SSE 02:46:24 15° SSE 02:47:48 10° SSE visible
30 Oct 9.9 17:47:39 10° S 17:56:10 32° SE 18:02:36 16° E visible
30 Oct 8.9 19:50:07 10° SW 20:00:17 80° SSE 20:00:49 77° ESE visible
30 Oct 10.6 21:55:40 10° W 21:59:02 24° W 21:59:02 24° W visible
31 Oct 10.0 17:25:01 10° S 17:33:18 30° SE 17:41:10 11° ENE visible
31 Oct 9.0 19:27:11 10° SW 19:37:21 77° SSE 19:39:23 61° E visible
31 Oct 10.2 21:32:38 10° W 21:37:35 33° W 21:37:35 33° W visible
01 Nov 10.1 17:02:23 10° S 17:10:27 28° SE 17:18:28 10° ENE visible
01 Nov 9.0 19:04:16 10° SW 19:14:24 74° SSE 19:17:53 47° ENE visible
01 Nov 9.8 21:09:38 10° W 21:16:05 44° WNW 21:16:05 44° WNW visible
02 Nov 9.1 18:41:22 10° SW 18:51:28 71° SSE 18:56:20 35° ENE visible
02 Nov 9.5 20:46:37 10° W 20:54:32 57° WNW 20:54:32 57° WNW visible
02 Nov 11.3 22:52:31 10° WNW 22:52:44 11° WNW 22:52:44 11° WNW visible
03 Nov 9.2 18:18:28 10° SW 18:28:32 68° SSE 18:34:44 27° ENE visible
03 Nov 9.2 20:23:36 10° W 20:32:56 70° NW 20:32:56 70° NW visible
03 Nov 11.0 22:29:32 10° WNW 22:31:08 16° WNW 22:31:08 16° WNW visible
04 Nov 9.2 17:55:35 10° SW 18:05:36 66° SE 18:13:06 20° ENE visible
04 Nov 9.0 20:00:35 10° W 20:10:48 74° NNW 20:11:18 73° N visible
04 Nov 10.7 22:06:33 10° WNW 22:09:29 22° WNW 22:09:29 22° WNW visible
05 Nov 9.3 17:32:43 10° SW 17:42:40 63° SE 17:51:26 14° ENE visible
05 Nov 9.1 19:37:35 10° W 19:47:49 75° NNW 19:49:38 63° NE visible
05 Nov 10.4 21:43:33 10° WNW 21:47:49 29° WNW 21:47:49 29° WNW visible
